CDT,Max TemperatureF,Mean TemperatureF,Min TemperatureF,Max Dew PointF,MeanDew PointF,Min DewpointF,Max Humidity, Mean Humidity, Min Humidity, Max Sea Level PressureIn, Mean Sea Level PressureIn, Min Sea Level PressureIn, Max VisibilityMiles, Mean VisibilityMiles, Min VisibilityMiles, Max Wind SpeedMPH, Mean Wind SpeedMPH, Max Gust SpeedMPH,PrecipitationIn, CloudCover, Events, WindDirDegrees
2013-4-1,37,30,22,19,17,15,81,61,40,30.30,30.22,30.09,10,10,10,22,13,30,0.00,1,,318
2013-4-2,41,30,18,21,18,15,88,64,40,30.38,30.33,30.29,10,10,10,20,8,30,0.00,0,,309
2013-4-3,45,31,16,24,17,13,92,61,30,30.47,30.38,30.27,10,10,10,15,6,22,0.00,0,,169
2013-4-4,57,44,31,36,27,19,82,59,35,30.24,30.13,30.04,10,10,10,20,10,24,0.00,0,,269
2013-4-5,51,39,27,28,25,22,85,59,33,30.24,30.12,29.91,10,10,10,22,11,30,0.00,2,,115
2013-4-6,62,52,41,50,37,26,86,65,44,29.91,29.69,29.56,10,10,7,30,16,37,T,5,Rain,212
2013-4-7,61,48,35,41,36,32,85,65,44,29.98,29.86,29.72,10,9,7,18,8,23,T,5,,23
2013-4-8,73,60,46,54,48,40,100,69,38,29.88,29.71,29.64,10,6,2,17,8,23,0.47,5,Rain,143
2013-4-9,49,44,39,46,42,37,93,87,80,29.95,29.85,29.73,10,6,1,25,17,32,1.44,8,Rain-Thunderstorm,53
2013-4-10,40,37,34,37,35,32,92,89,85,30.03,29.91,29.76,10,8,2,26,16,33,0.40,8,Rain-Thunderstorm,53
2013-4-11,44,40,36,43,37,34,100,93,85,29.75,29.62,29.54,10,6,2,21,11,25,0.26,8,Rain,102
2013-4-12,38,35,32,36,30,26,100,82,64,29.90,29.71,29.55,10,9,4,20,13,26,T,8,Rain,286
2013-4-13,47,39,30,32,26,23,78,64,49,29.99,29.93,29.88,10,10,10,17,10,24,0.01,8,,294
2013-4-14,63,50,36,55,43,32,93,82,71,29.91,29.64,29.45,10,9,2,30,14,37,0.98,7,Rain,132
2013-4-15,47,41,34,41,33,27,96,75,53,30.06,29.84,29.62,10,10,10,25,11,31,0.00,5,,266
2013-4-16,50,41,31,34,29,26,85,66,46,30.26,30.18,30.04,10,10,10,17,9,21,0.00,2,,342
2013-4-17,45,42,39,43,38,32,100,84,67,30.25,29.99,29.56,10,7,2,39,14,47,1.62,8,Rain-Thunderstorm,73
2013-4-18,43,38,33,41,37,29,100,91,82,29.72,29.54,29.43,10,7,1,25,13,35,0.41,8,Rain,321
2013-4-19,37,34,30,29,26,24,82,73,64,30.04,29.73,29.56,10,10,4,28,16,36,T,7,Snow,293
2013-4-20,47,37,26,25,20,12,85,56,27,30.33,30.23,30.06,10,10,10,15,7,20,0.00,1,,335
2013-4-21,62,51,39,46,35,24,83,65,47,30.31,30.23,30.09,10,10,8,28,16,35,0.10,6,Rain,156
2013-4-22,63,51,38,50,44,40,100,74,48,30.20,30.06,29.92,10,10,5,29,11,36,0.36,8,Rain,186
2013-4-23,42,37,31,35,29,24,92,73,53,30.11,30.07,30.00,10,10,10,24,16,30,0.00,6,,337
2013-4-24,53,40,27,37,27,22,92,61,30,30.13,30.08,30.00,10,10,8,26,12,37,0.02,2,Rain,269
2013-4-25,56,43,30,32,25,16,85,55,24,30.29,30.20,30.08,10,10,10,18,11,25,0.00,0,,262
2013-4-26,70,57,44,47,40,29,83,60,36,30.20,30.14,30.12,10,10,10,26,15,35,0.00,1,,195
2013-4-27,66,55,43,46,44,41,92,70,48,30.22,30.12,30.00,10,10,10,17,7,22,0.00,2,,177
2013-4-28,74,56,37,48,43,37,100,68,35,30.00,29.88,29.75,10,8,1,16,7,22,0.00,0,,185
2013-4-29,78,65,51,57,53,48,93,70,46,29.81,29.73,29.58,10,8,0,13,6,17,0.91,4,Fog-Rain-Hail-Thunderstorm,154
2013-4-30,83,69,54,63,54,43,78,57,36,29.90,29.67,29.56,10,10,2,30,14,39,0.14,2,Rain-Thunderstorm,251